Weather in Popasna

Ukraine / Luhansk Region     48˚38′01″N   38˚22′35″E
temp.,
°C
wind,
m/s
gust,
m/s
humid.,
%
clouds,
%
prec.,
mm/h
press.,
hPa
HPBL,
m
1 december, tue
tue123:00+1˚ese61173100 0.0 1028648
02:00ese6128098 0.0 1028627
05:00−1˚ese7138589 0.0 1028583
08:00−1˚ese8138383 0.0 1028592
11:00+1˚ese8117796 0.0 1028664
14:00+1˚ese7107698 0.0 1028821
17:00e71181100 0.0 1029719
20:00−1˚ese7128299 0.0 1029677
2 december, wed
wed223:00−1˚e71182100 0.0 1030553
02:00−2˚e7128297 0.0 1030474
05:00−2˚e7128294 0.0 1030467
08:00−2˚ese7118495 0.1 1031524
11:00−1˚ese61082100 0.1 1030538
14:00−1˚e6108098 0.1 1030509
17:00−1˚ese71179100 0.0 1030516
20:00−1˚ese7118099 0.0 1030546
3 december, thu
thu323:00−1˚ese71184100 0.0 1030515
02:00−1˚ese71187100 0.0 1030432
05:00−1˚ese71191100 0.3 1029486
08:00−1˚ese61191100 1.9 1030531
11:00ese5994100 1.7 1029499
14:00ese5996100 2.0 1029534
17:00ese51096100 0.6 1029500
20:00ese51091100 1.6 1029457
4 december, fri
fri423:00ese51093100 0.1 1029428
02:00ese51091100 0.1 1029419
05:00−1˚ese61094100 0.1 1028444
08:00−1˚ese5993100 0.4 1029440
11:00+1˚ese61089100 0.1 1029572
14:00ese61088100 0.1 1028489
17:00ese61187100 0.0 1029531
20:00−1˚ese6128592 0.0 1029481
5 december, sat
sat523:00−2˚ese6118360 0.0 1030450
02:00−3˚e5118347 0.0 1030379
05:00−3˚e6118216 0.0 1030370
08:00−3˚e6117931 0.0 1031386
11:00−1˚e6107688 0.0 1031399
14:00−1˚e6107390 0.0 1031414
17:00−3˚e6127257 0.0 1032378
20:00−4˚ese6126829 0.0 1032383